Location: Saint-Restitut
(44.3351°N, 4.7915°E)
Time: 12:08:04
(UTC+00:00)

CZ-4 R/B - Pass Details

Date: 03 February 2023
Orbit: 525 x 588 km, 97.7° (Epoch: 19 March)

Event Time Altitude Azimuth Distance (km) Brightness Sun altitude
Rises 18:01:10 0° 140° (SE) 2,802 4.6 -12.5°
Reaches altitude 10° 18:03:31 10° 130° (SE) 1,900 3.7 -13.0°
Maximum altitude 18:07:06 30° 69° (ENE) 1,059 2.2 -13.6°
Drops below altitude 10° 18:10:40 10° 8° (N) 1,886 3.9 -14.2°
Sets 18:12:59 0° 358° (N) 2,777 4.8 -14.6°
